Location: Engle Ridge Observatory
(44.8122°N, 85.4398°W)
Time: 09:55:29
(UTC-04:00)

Daily predictions for brighter satellites

Satellite Brightness Start Highest point End
(mag) Time Altitude Azimuth Time Altitude Azimuth Time Altitude Azimuth
USA 229 DEB 4.2 21:55:34 10° SW 22:02:28 70° NW 22:09:30 10° NE
USA 229 4.2 21:55:39 10° SW 22:02:34 70° NW 22:09:36 10° NE
Cosmos 2219 3.3 21:57:09 10° S 22:02:47 60° ESE 22:08:26 10° NNE
Cosmos 2237 Rocket 3.5 22:00:06 10° N 22:04:58 28° NE 22:09:48 10° ESE
Cosmos 2322 Rocket 4.5 22:02:53 10° NW 22:06:59 21° W 22:11:05 10° SSW
Aureole 3 4.3 22:02:28 10° S 22:08:42 64° E 22:13:37 10° NNE
Cosmos 2333 4.5 22:03:06 10° NNW 22:08:47 61° ENE 22:14:28 10° SE
Cosmos 1805 Rocket 4.0 22:04:37 10° SSE 22:08:51 45° E 22:13:05 10° NNE
MetOp-B 4.5 22:04:13 10° SE 22:09:24 53° ENE 22:14:36 10° N
Cosmos 1328 3.8 22:06:11 10° S 22:10:04 66° E 22:14:02 10° NNE
Cosmos 2322 4.4 22:04:49 10° NNW 22:10:25 56° WSW 22:15:57 10° S
H-2A R/B 3.8 22:07:13 10° ESE 22:11:00 20° ENE 22:14:48 10° NNE
Cosmos 1271 Rocket 4.0 22:10:10 10° NNE 22:13:30 27° ENE 22:16:50 10° SE
Cosmos 2266 Rocket 4.2 22:08:09 10° S 22:14:26 82° W 22:20:39 10° N
Cosmos 2360 Rocket 3.0 22:09:30 10° NW 22:14:57 50° WSW 22:20:22 10° S
Cosmos 1898 Rocket 4.0 22:11:05 10° S 22:15:52 40° ESE 22:20:45 10° NE
NOSS 3-1 (A) 3.6 22:16:11 10° SSW 22:21:51 51° ESE 22:28:08 10° NE
SPOT 1/Viking Rocket 4.0 22:18:13 10° SE 22:23:09 49° ENE 22:28:08 10° N
Cosmos 1626 4.3 22:22:10 10° ESE 22:23:48 13° E 22:25:27 10° ENE
Cosmos 2315 Rocket 4.0 22:19:31 10° N 22:25:46 90° E 22:31:58 10° S
H-2A R/B 2.9 22:21:27 10° S 22:25:53 54° W 22:30:20 10° NNW
Cosmos 1707 Rocket 3.6 22:21:34 10° N 22:25:56 71° E 22:30:18 10° SSE
Cosmos 1703 4.4 22:23:42 10° SSE 22:26:59 26° E 22:30:17 10° NNE
SL-14 R/B 3.6 22:24:11 10° S 22:28:01 49° E 22:31:55 10° NNE
Cosmos 1437 3.7 22:24:52 10° SSW 22:28:04 51° WNW 22:31:18 10° N
Cosmos 2150 Rocket 4.3 22:23:48 10° S 22:29:06 55° ESE 22:34:27 10° NNE
OTV 4 2.5 22:28:00 10° S 22:29:17 12° SSE 22:29:40 12° SSE
Meteor 1-27 4.2 22:24:12 10° N 22:29:55 78° E 22:35:31 10° SSE
YAOGAN 6 2.7 22:27:36 10° SSE 22:31:11 61° ENE 22:34:44 10° N
Cosmos 1666 Rocket 3.7 22:27:24 10° S 22:31:43 58° E 22:36:06 10° NNE
Cosmos 1674 4.3 22:28:30 10° SW 22:32:05 37° WNW 22:35:43 10° N
Terra 3.3 22:31:09 10° ESE 22:34:52 23° ENE 22:38:36 10° NNE
SL-08 RB Rocket 4.3 22:32:55 12° SE 22:36:47 42° ENE 22:41:04 10° N
Nadezhda 1 Rocket 4.5 22:36:35 10° N 22:42:22 43° ENE 22:47:23 14° SE
ATLAS 2AS CENTAUR R/B 3.6 22:37:43 10° S 22:44:19 35° ESE 22:51:22 10° NE
Cosmos 1470 Rocket 4.4 22:42:21 14° SSE 22:45:32 32° E 22:49:24 10° NNE
Cosmos 2227 Rocket 2.8 22:40:39 10° S 22:45:44 36° ESE 22:50:51 10° NE
Cosmos 1300 3.0 22:41:55 10° NNW 22:45:44 65° W 22:49:31 10° S
Cosmos 1933 Rocket 4.5 22:43:16 14° SSE 22:46:34 33° E 22:50:34 10° NNE
ERBS 3.0 22:44:48 10° SSW 22:48:00 34° SE 22:51:12 10° ENE
NOSS 0 Rocket 4.0 22:42:05 10° NNW 22:48:16 73° ENE 22:53:27 15° SE
CZ-4 SHROUD 4.2 22:45:44 10° S 22:48:44 43° W 22:51:45 10° NNW
Tiangong 1 1.3 22:46:38 10° WSW 22:49:37 45° SSE 22:52:17 12° E
OAO 2 Rocket 4.4 22:45:56 10° SW 22:50:20 27° S 22:53:39 15° SE
Envisat 4.1 22:47:17 10° SSW 22:52:04 41° W 22:56:53 10° NNW
ATLAS 3B R/B 3.4 22:46:28 10° NNW 22:53:18 45° NE 22:59:20 12° ESE
Cosmos 1745 Rocket 4.1 22:52:15 10° S 22:58:20 59° E 23:04:23 10° NNE
Meteor 1-11 4.5 22:53:40 10° SSW 22:59:25 75° WNW 23:05:09 10° N
SL-16 R/B 3.3 22:54:57 10° N 23:00:03 33° NE 23:04:25 13° ESE
USA 32 4.0 22:55:01 10° N 23:00:20 80° E 23:04:53 14° S
Lacrosse 4 Rocket 3.0 22:56:34 10° N 23:00:25 28° NE 23:03:42 13° ESE
Cosmos 2333 Rocket 2.3 22:57:23 10° NNW 23:03:11 80° ENE 23:07:32 18° SSE
Cosmos 2058 4.2 23:00:55 10° SSW 23:04:47 41° WNW 23:08:42 10° N
CZ-4 R/B 3.9 23:00:26 10° NNE 23:05:22 69° ESE 23:10:05 10° S
NOSS 3-1 (C) 3.9 23:01:25 10° SW 23:07:20 68° NW 23:14:00 10° NE
Cosmos 1455 2.5 23:04:17 10° N 23:08:01 50° ENE 23:10:08 23° SE
ARGOS 3.2 23:03:30 14° SSE 23:08:12 81° WSW 23:13:38 10° NNW
Cosmos 1937 Rocket 3.5 23:06:11 10° SSW 23:11:25 88° ESE 23:16:39 10° NNE
Cosmos 2297 Rocket 2.6 23:07:58 14° S 23:12:20 41° ESE 23:17:36 10° NE
COSMOS 2455 3.4 23:07:37 10° NNW 23:13:31 50° NE 23:17:55 18° ESE
Cosmos 2219 Rocket 2.4 23:09:09 10° NNW 23:14:42 66° WSW 23:18:54 18° S
COSMOS 2428 4.0 23:09:42 10° NW 23:14:45 34° WSW 23:19:48 10° SSW
Cosmos 1726 3.5 23:11:52 10° NNW 23:15:21 36° W 23:18:49 10° SSW
Cosmos 1386 Rocket 4.5 23:13:36 16° S 23:18:25 62° E 23:24:21 10° NNE
Cosmos 192 4.4 23:13:46 10° NNW 23:18:42 70° ENE 23:21:44 23° SSE
Cosmos 990 Rocket 3.9 23:13:48 10° SSW 23:18:55 75° ESE 23:24:05 10° NNE
Sich 1 4.1 23:18:48 10° SSW 23:23:03 46° WNW 23:27:17 10° N
Cosmos 1862 Rocket 3.5 23:20:41 10° N 23:25:03 81° E 23:27:33 25° SSE
CARTOSAT-1 3.6 23:25:07 25° SSE 23:27:32 72° ENE 23:31:51 10° N
CZ-4B R/B 4.2 23:23:12 10° N 23:28:21 56° WNW 23:33:25 10° SSW
Meteor 1-4 Rocket 4.0 23:25:06 10° NNW 23:28:30 33° W 23:31:14 14° SSW
Cosmos 1633 Rocket 4.2 23:25:26 10° SSW 23:29:34 41° WNW 23:33:43 10° N
Cosmos 2181 Rocket 4.4 23:29:48 10° N 23:36:02 52° ENE 23:39:48 24° SE
Cosmos 1980 4.0 23:31:48 10° NNW 23:37:22 60° WSW 23:40:54 22° S
CZ-4C R/B 4.2 23:34:30 10° NNW 23:40:26 31° NE 23:46:57 10° E
Cosmos 1869 3.4 23:38:55 10° NNW 23:42:59 76° W 23:44:53 30° S
Spot 2 4.5 23:38:27 10° NNE 23:43:30 60° ESE 23:46:02 27° S
Cosmos 1269 Rocket 4.1 23:38:22 10° NNW 23:43:42 74° ENE 23:46:29 29° SSE
IGS 5A 3.4 23:43:40 31° S 23:45:38 84° W 23:49:49 10° NNW
SeaSat 1 3.9 23:43:30 14° E 23:46:47 28° NE 23:50:58 10° N
FALCON 9 R/B 3.9 23:25:30 10° W 23:49:18 49° SSW 23:54:02 23° SE
Cosmos 2237 Rocket 2.7 23:43:48 10° NW 23:49:20 53° WSW 23:52:39 24° S
H-2A R/B 2.3 23:46:30 24° S 23:49:50 68° WSW 23:55:18 10° NNW
Cosmos 1869 Rocket 4.0 23:53:42 34° SE 23:55:05 45° E 23:59:21 10° NNE
CZ-4C R/B 4.4 23:54:41 21° SW 23:56:15 30° W 23:59:22 10° NW
